www.pogodaiklimat.ru
ПОГОДА в Сан-Хуане
Время
и дата
10:45 12.07
11:50 12.07
12:50 12.07
13:45 12.07
14:45 12.07
15:45 12.07
16:45 12.07
17:45 12.07
18:45 12.07
06:55 13.07
07:45 13.07
08:45 13.07
09:45 13.07
10:45 13.07
11:45 13.07
12:45 13.07
13:45 13.07
14:45 13.07
15:45 13.07
16:45 13.07
17:45 13.07
18:45 13.07
06:45 14.07
07:45 14.07
08:50 14.07
09:45 14.07
10:45 14.07
11:45 14.07
12:45 14.07
13:45 14.07
14:45 14.07
15:50 14.07
16:45 14.07
17:45 14.07
18:45 14.07
06:45 15.07
07:48 15.07
08:50 15.07
09:45 15.07
10:45 15.07
11:50 15.07
12:45 15.07
13:45 15.07
14:45 15.07
15:55 15.07
16:45 15.07
17:45 15.07
18:45 15.07
Ветер
(напр.,м/с)
Видим. Явления Облачность Т
(С)
Тd
(С)
f
(%)
Тe
(С)
Тes
(С)
Комфортность P
(гПа)
Po
(гПа)
Тmin
(С)
Tmax
(С)
R
(мм)
R24
(мм)
S
(см)
В 10 13 км 5/5 900 m
[Ac]
+31.0 +26.0 75 +46 +47 опасность
перегрева
1018.8
В 8
{11}
11 км мгла 8/8 900 м +31.0 +26.0 75 +46 +47 очень
душно
1018.5
В 7 11 км мгла 8/8 900 м +31.0 +26.0 75 +46 +48 очень
душно
1018.5
В 7
{10}
11 км мгла 8/8 900 м +31.0 +26.0 75 +46 +48 очень
душно
1017.8
В 6 11 км мгла 8/8 900 м +31.0 +26.0 75 +46 +48 очень
душно
1017.1
В 6 11 км мгла 8/8 900 м +31.0 +26.0 75 +46 +48 очень
душно
1016.8
В 7 11 км мгла 8/5 900 m
[Ac]
+31.0 +25.0 70 +44 +45 опасность
перегрева
1017.1
В 7 11 км мгла 8/8 900 м +30.0 +26.0 79 +45 +45 очень
душно
1017.5
В 8 11 км мгла 8/8 900 м +29.0 +26.0 84 +44 +44 очень
душно
1018.1
ЮВ 4
{8}
10 км дождь 8/8 600 m
[Ns]
+26.0 +24.0 89
ЮВ 4 13 км слабый дождь 10/10 600 m
[Ns]
+26.0 +24.0 89
Ю 2 16 км 8/5 1050 m
[Ac]
+26.0 +25.0 94 +37 +39 очень
душно
1018.1
В 6 16 км 8/5 1050 m
[Ac]
+28.0 +24.0 79 +39 +40 очень
душно
1019.2
В 4 16 км 8/5 900 m
[Ac]
+28.0 +26.0 89 +42 +45 опасность
перегрева
1019.5
В 5 16 км 8/5 900 m
[Ac]
+29.0 +26.0 84 +44 +47 опасность
перегрева
1018.5
В 5 16 км 8/5 900 m
[Ac]
+30.0 +26.0 79 +45 +48 опасность
перегрева
1017.8
В 6 16 км 8/5 900 m
[Ac]
+31.0 +27.0 79 +48 +51 опасность
перегрева
1017.5
В 7 16 км ливневые осадки 8/8 900 m
[Ac Cb]
+31.0 +26.0 75 +46 +48 очень
душно
1017.1
В 6 16 км ливневые осадки 8/8 750 m
[Ac Cb]
+30.0 +27.0 84 +47 +48 очень
душно
1016.8
В 6 11 км мгла 8/5 750 m
[Ac]
+30.0 +27.0 84 +47 +48 опасность
перегрева
1017.1
В 5 11 км мгла 8/8 750 м +29.0 +27.0 89 +46 +46 очень
душно
1017.5
В 6 11 км мгла 8/5 750 m
[Ac]
+29.0 +27.0 89 +46 +46 опасность
перегрева
1017.8
ЮВ 3 11 км мгла 8/5 750 m
[Ac]
+29.0 +26.0 84 +44 +44 опасность
перегрева
1017.1
В 4 11 км мгла 8/5 540 m
[Ac]
+29.0 +26.0 84 +44 +44 опасность
перегрева
1017.1
В 4 11 км мгла 8/5 540 m
[Ac]
+30.0 +26.0 79 +45 +46 опасность
перегрева
1017.1
СВ 2 11 км мгла 8/5 750 m
[Ac]
+31.0 +26.0 75 +46 +49 опасность
перегрева
1016.8
В 5 11 км мгла 8/5 750 m
[Ac]
+31.0 +26.0 75 +46 +49 опасность
перегрева
1016.5
В 7 11 км мгла 5/5 900 м +31.0 +26.0 75 +46 +49 опасность
перегрева
1016.1
В 5 13 км мгла 8/8 750 м +31.0 +27.0 79 +48 +51 очень
душно
1015.8
В 5 13 км мгла 5/5 750 м +32.0 +26.0 71 +48 +53 опасность
перегрева
1015.4
В 6 13 км мгла 8/8 750 м +31.0 +26.0 75 +46 +48 очень
душно
1015.1
В 6 13 км мгла 8/8 750 м +31.0 +26.0 75 +46 +48 очень
душно
1014.8
В 5 13 км мгла 5/5 750 м +31.0 +26.0 75 +46 +49 опасность
перегрева
1014.8
В 5 13 км мгла 8/5 750 m
[Ac]
+30.0 +26.0 79 +45 +46 опасность
перегрева
1015.1
В 4 13 км мгла 8/5 750 m
[Ac]
+30.0 +26.0 79 +45 +45 опасность
перегрева
1015.4
штиль 0 13 км 5/5 750 м +27.0 +24.0 84 +37 +37 очень
душно
1015.4
штиль 0 13 км 5/5 900 м +28.0 +23.0 74 +37 +38 очень
душно
1015.8
В 2 13 км 5/5 900 м +30.0 +23.0 66 +40 +42 очень
душно
1016.1
В 3 13 км 5/5 900 м +29.0 +24.0 74 +40 +44 очень
душно
1016.5
В 3 13 км 5/5 900 м +29.0 +24.0 74 +40 +46 очень
душно
1016.1
В 5 13 км 8/5 900 m
[Ac]
+30.0 +23.0 66 +40 +43 очень
душно
1015.8
В 4 16 км 8/5 1050 m
[Ac]
+31.0 +23.0 62 +41 +45 опасность
перегрева
1015.8
В 6 16 км 5/5 900 m
[Ac]
+31.0 +23.0 62 +41 +45 опасность
перегрева
1015.1
В 6 16 км 5/5 900 м +31.0 +23.0 62 +41 +45 опасность
перегрева
1014.4
В 5 16 км 5/5 1200 m
[Ac]
+31.0 +23.0 62 +41 +45 опасность
перегрева
1013.7
В 5 16 км 5/5 900 m
[Ac]
+31.0 +23.0 62 +41 +43 опасность
перегрева
1013.7
В 5 16 км 8/5 900 m
[Ac]
+30.0 +24.0 70 +41 +42 опасность
перегрева
1014.1
В 5 16 км 8/5 900 m
[Ac]
+29.0 +24.0 74 +40 +40 очень
душно
1014.4
Местоположение метеостанции Fernando Luis Ribas Dominicci Airport: широта 18.4568 долгота -66.0981 высота над уровнем моря 3 м.
В архиве по умолчанию представлена погода в Сан-Хуане за последние 1-2 суток. Обновление информации о фактической погоде в базе происходит ежечасно! Архивные данные за месяц целиком и за предыдущие месяцы Вы можете получить, выбрав интересующий диапазон дат из раскрывающегося списка и нажав кнопку "Ввод!".
Внимание! Архив погоды МЕТАР в базе сайта по станциям, не включенным в климатический монитор, хранится не более 60 дней. Нет смысла пытаться выбрать более раннюю дату.
*Определитесь, кто Вы:
Внимание! Время в таблицах - местное (без учета летнего времени). Для получения всемирного времени необходимо вычесть поправку, которая равна -4 ч.
Смотрите также архив погоды в соседних городах и на ближайших метеорологических станциях:
Партнеры нашего сайта:      
Пояснения к столбцам:
  • Ветер - указаны скорость ветра в м/с - средняя за 10 мин, порывы в срок и между сроками (в фигурных скобках) и направление, откуда дует ветер: С - северный,
  • СВ - северо-восточный, В - восточный, ЮВ - юго-восточный, Ю - южный, ЮЗ - юго-западный, З - западный, СЗ - северо-западный.
  • Видимость - горизонтальная дальность видимости в метрах или километрах. При видимости от 1 до 10 км при отсутствии осадков обычно наблюдается дымка, при ухудшении видимости до 1 км и менее - туман. В сухую погоду видимость может ухудшаться дымом, пылью или мглою.
  • Явления - указаны атмосферные явления, наблюдавшиеся в срок или в последний час перед сроком; фигурными скобками обозначены явления, наблюдавшиеся между сроками (за 1-3 часа до срока); квадратными скобками обозначены град или гололедные отложения с указанием их диаметра в мм.
  • Облачность - указаны через наклонную черту общая и нижняя облачность в баллах и высота нижней границы облаков в метрах; квадратными скобками обозначены формы облаков: Ci - перистые, Cs - перисто-слоистые, Cc - перисто-кучевые, Ac - высококучевые, As - высокослоистые, Sc - слоисто-кучевые, Ns - слоисто-дождевые, Cu - кучевые, Cb - кучево-дождевые. Подробнее классификацию облаков см. в Атласе облаков (PDF).
  • T - Температура воздуха - температура, измеренная на высоте 2 м над землей.
  • Td - Температура точки росы - температура, при понижении до которой содержащийся в воздухе водяной пар достигнет насыщения.
  • f - Относительная влажность воздуха - влажноcть воздуха, измеренная на высоте 2 м над землей.
  • Te - Эффективная температура - температура, которую ощущает одетый по сезону человек в тени. Характеристика душности погоды. При расчете учитывается влияние влажности воздуха и скорости ветра на теплоощущения человека.
  • Tes - Эффективная температура на солнце - температура, которую ощущает человек, с поправкой на солнечный нагрев. Характеристика знойности погоды. Зависит от высоты солнца над горизонтом, облачности и скорости ветра. Ночью, в пасмурную погоду, а также при ветре 12 м/с и более поправка равна нулю.
  • P - Атмосферное давление - приведенное к уровню моря атмосферное давление.
  • Po - Атмосферное давление - измеренное на уровне метеостанции атмосферное давление.
  • Tmin - Минимальная температура - минимум температуры воздуха на высоте 2 м над землей.
  • Tmax - Максимальная температура - максимум температуры воздуха на высоте 2 м над землей.
  • R - Количество осадков - Количество выпавших осадков за период времени, мм. При наведении курсора мыши на число - период времени, за который выпало указанное количество осадков.
  • R24 - Количество осадков - Количество выпавших осадков за 24 часа, мм.
  • S - Снежный покров - Высота снежного покрова, см. При наведении курсора мыши на число - состояние снежного покрова и степень покрытия местности в баллах.